Home   Weather   Moga   Past weeks

Flag for India Past Weather in Moga, Punjab, India — Yesterday and Last 2 Weeks

70 °F


Feels Like: 70 °F
Forecast: 60 / 89 °F
Wind: No wind

Location: Amritsar Airport

Current Time: Oct 26, 2016 at 11:30:56 AM

Latest Report: Oct 26, 2016 at 9:30 AM

Visibility: 1 mi

Pressure: 29.95 "Hg

Humidity: 100%

Dew Point: 70 °F

Location of MogaLocation

Past Weather in Moga — Graph


Moga Temperature Yesterday

Maximum temperature yesterday: 88 °F (at 1:30 PM)
Minimum temperature yesterday: 63 °F (at 5:00 AM)
Average temperature yesterday: 73 °F

High & Low Weather Summary for the Past Weeks

High93 °F (Oct 12, 2:30 PM)100% (Oct 11, 9:30 PM)29.95 "Hg (Oct 11, 9:30 PM)
Low61 °F (Oct 22, 6:00 AM)23% (Oct 18, 3:30 PM)29.68 "Hg (Oct 12, 3:30 PM)
Average76 °F73%29.81 "Hg
* Reported Oct 11 9:30 AM — Oct 26 9:30 AM, Moga, Weather by CustomWeather, © 2016

Note: Actual official high and low records may vary slightly from our data, if they occured in-between our weather recording intervals... More about our weather records


Moga Weather History for the Previous 24 Hours

Scroll right to see more
Time TempWeatherWind HumidityBarometerVisibility
9:30 AM
Wed, Oct 26
70 °FFog.No wind100%29.95 "Hg1 mi
9:00 AM66 °FFog.No wind100%29.92 "Hg1 mi
8:30 AM64 °FFog.No wind100%29.92 "Hg1 mi
8:00 AM63 °FFog.No wind100%29.89 "Hg1 mi
7:30 AM61 °FFog.No wind100%29.89 "Hg1 mi
7:00 AM61 °FFog.No wind100%29.89 "Hg1 mi
6:30 AM61 °FFog.No wind100%29.86 "Hg1 mi
6:00 AM61 °FFog.No wind100%29.86 "Hg1 mi
5:30 AM63 °FFog.No wind100%29.86 "Hg1 mi
5:00 AM63 °FFog.No wind100%29.83 "Hg1 mi
4:30 AM63 °FFog.No wind100%29.83 "Hg1 mi
3:30 AM64 °FFog.No wind100%29.83 "Hg1 mi
3:00 AM64 °FFog.No wind100%29.83 "Hg1 mi
2:30 AM64 °FFog.No wind100%29.83 "Hg1 mi
2:00 AM64 °FFog.No wind100%29.83 "Hg1 mi
1:30 AM66 °FFog.No wind100%29.83 "Hg1 mi
1:00 AM66 °FFog.No wind100%29.83 "Hg1 mi
12:30 AM64 °FFog.No wind100%29.83 "Hg1 mi
12:00 AM66 °FFog.No wind100%29.83 "Hg1 mi
11:30 PM
Tue, Oct 25
66 °FFog.No wind94%29.86 "Hg1 mi
11:00 PM68 °FFog.No wind88%29.86 "Hg2 mi
10:30 PM68 °FFog.No wind94%29.83 "Hg2 mi
10:00 PM68 °FFog.No wind94%29.83 "Hg2 mi
9:30 PM68 °FFog.No wind83%29.83 "Hg2 mi
9:00 PM68 °FFog.No wind83%29.83 "Hg2 mi
8:30 PM70 °FFog.No wind78%29.83 "Hg2 mi
8:00 PM70 °FFog.No wind78%29.83 "Hg2 mi
7:30 PM72 °FHaze.No wind69%29.80 "Hg2 mi
7:00 PM73 °FHaze.No wind65%29.80 "Hg2 mi
6:30 PM75 °FHaze.No wind61%29.80 "Hg2 mi
6:00 PM79 °FClear.No wind51%29.80 "Hg2 mi
5:30 PM81 °FClear.No wind45%29.77 "Hg2 mi
4:30 PM86 °FClear.6 mph33%29.77 "Hg2 mi
4:00 PM88 °FClear.5 mph29%29.77 "Hg2 mi
3:30 PM88 °FClear.6 mph31%29.80 "Hg2 mi
3:00 PM88 °FClear.6 mph29%29.80 "Hg2 mi
2:30 PM88 °FClear.6 mph31%29.80 "Hg2 mi
2:00 PM88 °FClear.5 mph31%29.80 "Hg2 mi
1:30 PM88 °FClear.5 mph35%29.83 "Hg2 mi
1:00 PM86 °FClear.3 mph38%29.83 "Hg2 mi
12:30 PM86 °FHaze.5 mph40%29.83 "Hg2 mi
12:00 PM84 °FHaze.3 mph43%29.86 "Hg2 mi
11:30 AM84 °FHaze.2 mph45%29.86 "Hg1 mi
11:00 AM77 °FHaze.2 mph65%29.86 "Hg1 mi
Weather by CustomWeather, © 2016

See weather overviewHow to use our weather pages